[[{"header":{"parameterUnit":"m.s-1","parameterCategory":1,"la1":30.2991,"la2":30.254,"lo1":-89.0895,"lo2":-89.0444,"dy":0.0017,"dx":0.0017,"nx":28,"ny":28,"refTime":"2025-01-05T09:00:00:Z","depth":0,"parameterNumber":2,"parameterNumberName":"U-component_of_WINDS"},"data":[0,0,0,0,0,0,0,0,0,0,0,0,0,0,0,0,0,0,0,0,0,0,0,0,0,0,0,0,0,0,0,0,0,0,0,0,0,0,0,0,0,0,0,0,0,0,0,0,0,0,0,0,0,0,0,0,0,0,-0.6644,-0.6645,0,-0.6692,-0.6693,-0.6693,-0.6725,-0.6725,-0.6725,-0.6726,-0.6772,-0.6773,-0.6774,0,0,0,0,0,0,0,0,0,0,0,0,0,-0.6576,-0.6577,-0.6644,-0.6645,-0.6645,-0.6692,-0.6693,-0.6693,-0.6725,-0.6725,-0.6726,-0.6726,-0.6772,-0.6773,-0.6774,0,0,0,0,0,0,0,0,0,0,0,0,0,-0.6613,-0.6577,-0.6644,-0.6667,-0.6669,-0.6692,-0.6693,-0.6694,-0.6725,-0.6725,-0.6726,-0.6726,-0.6771,-0.6773,-0.6774,-0.6777,0,0,-0.6779,-0.678,0,0,0,0,0,0,0,0,-0.6611,-0.6615,-0.6663,-0.6665,-0.6668,-0.6703,-0.6686,-0.6722,-0.6725,-0.6704,-0.6726,-0.6726,-0.6749,-0.6752,-0.676,-0.678,-0.6782,-0.6779,-0.678,-0.6781,-0.6781,0,0,0,0,0,0,0,-0.6608,-0.6613,-0.6663,-0.6663,-0.6667,-0.6673,-0.6679,-0.6693,-0.6724,-0.6706,-0.6708,-0.6713,-0.675,-0.6759,-0.6762,-0.6782,-0.6779,-0.6781,-0.6782,-0.6782,-0.6805,-0.6804,0,0,0,0,0,0,-0.6602,-0.6611,-0.6661,-0.6664,-0.664,-0.6674,-0.6681,-0.6691,-0.6724,-0.6729,-0.6713,-0.6715,-0.6756,-0.676,-0.6763,-0.6768,-0.6781,-0.6782,-0.6783,-0.6805,-0.6805,-0.6804,0,0,0,0,0,0,-0.6601,-0.6606,-0.6659,-0.6638,-0.6646,-0.6675,-0.6687,-0.6692,-0.6701,-0.6729,-0.6735,-0.6716,-0.6756,-0.6761,-0.6774,-0.677,-0.6783,-0.6784,-0.6805,-0.6805,-0.6805,-0.6778,0,0,0,0,0,0,-0.6599,-0.6606,-0.6608,-0.6638,-0.6647,-0.667,-0.6687,-0.6693,-0.6704,-0.6706,-0.6734,-0.6739,-0.6757,-0.6771,-0.6775,-0.6773,-0.6786,-0.6806,-0.6805,-0.6805,-0.6779,-0.6777,-0.6774,0,0,0,0,0,-0.6596,-0.6598,-0.6608,-0.6614,-0.665,-0.667,-0.6674,-0.6696,-0.6703,-0.6705,-0.6723,-0.6738,-0.677,-0.6772,-0.6777,-0.6775,-0.6806,-0.6805,-0.6805,-0.678,-0.6777,-0.6775,0,0,0,0,0,0,-0.6566,-0.6603,-0.6614,-0.6626,-0.6645,-0.6675,-0.6678,-0.6692,-0.6708,-0.671,-0.6735,-0.6741,-0.6751,-0.6764,-0.6766,-0.6779,-0.679,-0.679,-0.677,-0.6767,-0.6764,-0.6761,-0.6787,0,0,0,0,0,-0.6561,-0.6575,-0.6606,-0.6614,-0.6622,-0.6649,-0.6658,-0.6673,-0.6693,-0.67,-0.6719,-0.6737,-0.6751,-0.676,-0.6774,-0.6781,-0.6787,-0.6782,-0.678,-0.6778,-0.6777,-0.6781,-0.6779,-0.6802,-0.6802,-0.6802,0,0,-0.6551,-0.6573,-0.658,-0.6608,-0.6624,-0.6637,-0.6655,-0.6667,-0.6676,-0.6702,-0.6715,-0.6729,-0.675,-0.676,-0.6765,-0.6771,-0.6772,-0.6777,-0.6775,-0.6776,-0.678,-0.6777,-0.6775,-0.6801,-0.6801,-0.6802,0,0,-0.6538,-0.6557,-0.6565,-0.658,-0.6605,-0.6622,-0.6624,-0.6652,-0.6663,-0.6676,-0.6695,-0.6705,-0.6729,-0.6743,-0.6754,-0.6745,-0.6758,-0.6749,-0.6736,-0.6739,-0.6737,-0.6736,-0.6732,-0.673,-0.6749,-0.6749,-0.6749,0,-0.6522,-0.6543,-0.6567,-0.6578,-0.659,-0.6614,-0.6621,-0.6635,-0.6662,-0.6669,-0.6676,-0.6706,-0.6722,-0.6734,-0.6732,-0.674,-0.6742,-0.6746,-0.6736,-0.6734,-0.6733,-0.673,-0.6728,-0.6747,-0.6747,-0.6747,-0.6748,0,-0.6521,-0.6535,-0.6538,-0.6565,-0.6576,-0.6586,-0.661,-0.6619,-0.6632,-0.6648,-0.6661,-0.6681,-0.6699,-0.6704,-0.6717,-0.6717,-0.672,-0.6731,-0.6743,-0.6729,-0.6726,-0.6725,-0.6745,-0.6746,-0.6746,-0.6746,0,0,-0.6492,-0.6531,-0.6532,-0.6543,-0.6571,-0.6582,-0.6591,-0.661,-0.6617,-0.6634,-0.6642,-0.6661,-0.6671,-0.6682,-0.6698,-0.67,-0.6691,-0.6711,-0.6711,-0.6705,-0.6691,-0.6682,-0.668,-0.67,-0.67,-0.67,-0.6689,0,-0.6483,-0.6503,-0.6524,-0.6536,-0.6548,-0.657,-0.6579,-0.6596,-0.6611,-0.6622,-0.6638,-0.6651,-0.6664,-0.6671,-0.6674,-0.6691,-0.6688,-0.6692,-0.6706,-0.6706,-0.67,-0.6679,-0.667,-0.6659,-0.6688,-0.6688,-0.6688,0,-0.6475,-0.6492,-0.6505,-0.6531,-0.6537,-0.6544,-0.6562,-0.6574,-0.6593,-0.6603,-0.6616,-0.6632,-0.6641,-0.6652,-0.6665,-0.6667,-0.6674,-0.6683,-0.6683,-0.6685,-0.6696,-0.6679,-0.6656,-0.6654,-0.6686,-0.6686,-0.6686,0,-0.6452,-0.6478,-0.6488,-0.6498,-0.6528,-0.6533,-0.6545,-0.6565,-0.6575,-0.659,-0.6596,-0.6612,-0.6621,-0.6632,-0.6652,-0.6658,-0.6662,-0.6674,-0.667,-0.6669,-0.667,-0.6669,-0.6646,-0.6675,-0.6675,-0.6675,-0.6675,0,-0.6439,-0.6446,-0.6478,-0.6485,-0.6492,-0.6516,-0.6523,-0.6537,-0.6554,-0.6563,-0.6583,-0.6591,-0.6616,-0.6627,-0.6642,-0.6649,-0.6653,-0.6661,-0.6665,-0.6659,-0.6658,-0.6663,-0.6664,-0.6675,-0.6675,-0.6675,-0.6675,0,-0.6414,-0.6436,-0.6449,-0.6477,-0.6484,-0.6488,-0.6511,-0.6518,-0.6533,-0.6544,-0.6548,-0.6572,-0.6585,-0.6606,-0.6625,-0.6635,-0.6639,-0.6646,-0.6633,-0.6635,-0.6629,-0.6629,-0.6608,-0.6606,-0.6637,-0.6636,-0.6636,0,-0.6404,-0.641,-0.6438,-0.6446,-0.6458,-0.647,-0.648,-0.6503,-0.6512,-0.6534,-0.6537,-0.6552,-0.6565,-0.6584,-0.6602,-0.6616,-0.6623,-0.6615,-0.6625,-0.6619,-0.6622,-0.6621,-0.6621,-0.6612,-0.6612,-0.6612,-0.6611,0,-0.6384,-0.6395,-0.6409,-0.6426,-0.6437,-0.6451,-0.6467,-0.6471,-0.6497,-0.6506,-0.652,-0.653,-0.6549,-0.6563,-0.6579,-0.6591,-0.6605,-0.6608,-0.6607,-0.6601,-0.6593,-0.6596,-0.6625,-0.6608,-0.6609,-0.6609,-0.6609,-0.6609,-0.6366,-0.6372,-0.6392,-0.6407,-0.6421,-0.6434,-0.6441,-0.6458,-0.647,-0.6488,-0.65,-0.6513,-0.653,-0.6554,-0.6565,-0.6574,-0.658,-0.658,-0.658,-0.6579,-0.6576,-0.6592,-0.6577,-0.6577,-0.6577,-0.6577,-0.6578,0,-0.6347,-0.6361,-0.6374,-0.6395,-0.6405,-0.6418,-0.6435,-0.6443,-0.6454,-0.647,-0.6482,-0.6497,-0.651,-0.6529,-0.6543,-0.6547,-0.6553,-0.655,-0.6549,-0.6551,-0.657,-0.6569,-0.6544,-0.6544,-0.6544,-0.6544,-0.6544,-0.6544,-0.6338,-0.6348,-0.636,-0.6377,-0.639,-0.6403,-0.6412,-0.6424,-0.6436,-0.6452,-0.6463,-0.6476,-0.6493,-0.6508,-0.652,-0.6525,-0.6529,-0.6523,-0.653,-0.6547,-0.655,-0.6553,-0.6552,-0.6524,-0.6524,-0.651,-0.651,-0.651]},{"header":{"parameterUnit":"m.s-1","parameterCategory":1,"la1":30.2991,"la2":30.254,"lo1":-89.0895,"lo2":-89.0444,"dy":0.0017,"dx":0.0017,"nx":28,"ny":28,"refTime":"2025-01-05T09:00:00:Z","depth":0,"parameterNumber":3,"parameterNumberName":"V-component_of_WINDS"},"data":[0,0,0,0,0,0,0,0,0,0,0,0,0,0,0,0,0,0,0,0,0,0,0,0,0,0,0,0,0,0,0,0,0,0,0,0,0,0,0,0,0,0,0,0,0,0,0,0,0,0,0,0,0,0,0,0,0,0,6.7372,6.7373,0,6.7486,6.7487,6.7489,6.7529,6.7528,6.7528,6.7528,6.764,6.7643,6.7646,0,0,0,0,0,0,0,0,0,0,0,0,0,6.7188,6.7191,6.7372,6.7373,6.7375,6.7486,6.7487,6.7489,6.7529,6.7528,6.7528,6.7527,6.7639,6.7643,6.7647,0,0,0,0,0,0,0,0,0,0,0,0,0,6.7281,6.7192,6.7372,6.7408,6.7413,6.7486,6.7487,6.7489,6.7529,6.7528,6.7528,6.7527,6.7637,6.7642,6.7647,6.7691,0,0,6.7663,6.7665,0,0,0,0,0,0,0,0,6.7276,6.7288,6.7401,6.7406,6.7411,6.7493,6.7464,6.7557,6.7529,6.7485,6.7528,6.7527,6.7591,6.76,6.7622,6.7696,6.7701,6.7663,6.7666,6.7668,6.767,0,0,0,0,0,0,0,6.7269,6.7283,6.7417,6.7403,6.7409,6.7419,6.7431,6.7481,6.754,6.7488,6.7492,6.7505,6.7593,6.7617,6.7625,6.7702,6.7663,6.7667,6.7671,6.7672,6.7822,6.7823,0,0,0,0,0,0,6.7257,6.7277,6.7413,6.742,6.7341,6.7422,6.7437,6.7467,6.7539,6.755,6.7505,6.7506,6.7609,6.7619,6.7629,6.7688,6.7668,6.7673,6.7676,6.7821,6.7822,6.7823,0,0,0,0,0,0,6.7253,6.7269,6.7409,6.735,6.7369,6.7426,6.746,6.747,6.7494,6.7552,6.7562,6.7519,6.7609,6.7622,6.7677,6.7693,6.7675,6.768,6.782,6.7821,6.7823,6.7804,0,0,0,0,0,0,6.7247,6.7267,6.7284,6.735,6.7372,6.7454,6.7461,6.7472,6.7503,6.7505,6.7568,6.7578,6.761,6.7669,6.7682,6.7699,6.7684,6.7819,6.782,6.7822,6.7803,6.7805,6.7806,0,0,0,0,0,6.7241,6.7272,6.7285,6.7301,6.7394,6.7455,6.7467,6.7505,6.7504,6.7522,6.756,6.7576,6.7689,6.7674,6.7689,6.7708,6.7818,6.782,6.7822,6.7803,6.7804,6.7806,0,0,0,0,0,0,6.7203,6.7281,6.7296,6.735,6.7396,6.7462,6.7485,6.7504,6.755,6.755,6.7593,6.7607,6.7659,6.7689,6.7671,6.7756,6.7754,6.7759,6.7735,6.7737,6.7738,6.773,6.7688,0,0,0,0,0,6.7202,6.7246,6.7311,6.7352,6.7375,6.7426,6.7454,6.7479,6.7528,6.7547,6.7589,6.7635,6.7681,6.771,6.7756,6.7808,6.7824,6.7829,6.783,6.7831,6.7835,6.7869,6.7873,6.783,6.783,6.783,0,0,6.7198,6.7246,6.7271,6.7346,6.7385,6.7429,6.7442,6.7487,6.7521,6.7553,6.7608,6.7641,6.7695,6.775,6.7776,6.7776,6.785,6.7833,6.7833,6.7837,6.7871,6.7875,6.7879,6.7831,6.7831,6.7831,0,0,6.7215,6.7255,6.7296,6.7336,6.7395,6.743,6.744,6.7504,6.7528,6.7585,6.7611,6.7651,6.7729,6.7768,6.7798,6.7835,6.7852,6.7848,6.7854,6.7886,6.789,6.7893,6.7909,6.7914,6.7852,6.7852,6.7852,0,6.7203,6.7272,6.7314,6.736,6.7393,6.7428,6.747,6.7506,6.7577,6.7599,6.7599,6.7701,6.7739,6.7806,6.7815,6.7837,6.7851,6.7841,6.7886,6.789,6.7893,6.7909,6.7915,6.7851,6.7851,6.7851,6.7852,0,6.7255,6.7303,6.7329,6.74,6.7436,6.748,6.7529,6.7561,6.7584,6.7619,6.7678,6.7726,6.7784,6.7801,6.7822,6.7872,6.7871,6.7878,6.7877,6.7896,6.7912,6.7918,6.785,6.7851,6.7851,6.7851,0,0,6.7249,6.7347,6.7355,6.739,6.746,6.7498,6.7544,6.7604,6.7631,6.768,6.7721,6.7788,6.7797,6.7831,6.7858,6.7886,6.7917,6.7891,6.7893,6.7896,6.7977,6.7973,6.7979,6.7929,6.793,6.7931,6.7974,0,6.7276,6.7363,6.7404,6.7472,6.7518,6.7554,6.7595,6.7643,6.7678,6.7722,6.776,6.7808,6.7815,6.7836,6.7866,6.7906,6.7934,6.7904,6.7968,6.797,6.7955,6.7986,6.798,6.8018,6.798,6.7981,6.7981,0,6.7319,6.7372,6.7445,6.7515,6.7536,6.7572,6.7632,6.7673,6.773,6.7753,6.7794,6.7821,6.7872,6.7868,6.794,6.7919,6.7948,6.7973,6.7975,6.7983,6.7977,6.7997,6.8031,6.8037,6.7991,6.799,6.7989,0,6.731,6.7399,6.7456,6.7484,6.7565,6.7591,6.7626,6.7682,6.7716,6.7768,6.7792,6.7848,6.7879,6.7922,6.7964,6.7957,6.8034,6.8032,6.8056,6.8055,6.807,6.8069,6.8111,6.8086,6.8086,6.8086,6.8086,0,6.7337,6.7381,6.7453,6.7488,6.754,6.7588,6.7637,6.7674,6.7725,6.7768,6.7802,6.7841,6.7894,6.7941,6.7974,6.8031,6.8044,6.8065,6.8073,6.8063,6.8061,6.8083,6.8082,6.8088,6.8087,6.8087,6.8087,0,6.7335,6.7385,6.745,6.7524,6.7544,6.7579,6.7642,6.7678,6.7716,6.7771,6.7787,6.7846,6.7903,6.795,6.8024,6.8046,6.8107,6.8115,6.8088,6.8093,6.8115,6.8113,6.8174,6.8186,6.8151,6.8152,6.8152,0,6.7349,6.7385,6.7465,6.7497,6.7533,6.7584,6.7622,6.7671,6.7708,6.7778,6.7806,6.7866,6.7917,6.8007,6.8057,6.8115,6.8126,6.8144,6.8135,6.8124,6.8129,6.8127,6.8132,6.8144,6.8144,6.8145,6.8145,0,6.737,6.7395,6.7447,6.751,6.7554,6.7605,6.7657,6.7681,6.7741,6.7781,6.7842,6.7882,6.796,6.802,6.8085,6.812,6.8143,6.8148,6.8157,6.8146,6.8131,6.8142,6.8093,6.8146,6.8145,6.8145,6.8145,6.8145,6.7378,6.7413,6.7476,6.7535,6.758,6.7629,6.7668,6.7713,6.7766,6.7835,6.7861,6.7924,6.7983,6.8073,6.8109,6.816,6.8162,6.8174,6.8177,6.818,6.818,6.8122,6.8171,6.8171,6.8171,6.8171,6.8171,0,6.7402,6.7446,6.75,6.7574,6.7621,6.7641,6.7701,6.7739,6.7795,6.7849,6.79,6.7972,6.8032,6.8089,6.8152,6.8181,6.8194,6.8196,6.8195,6.8204,6.8173,6.816,6.8186,6.8186,6.8186,6.8186,6.8186,6.8186,6.7421,6.7483,6.7515,6.7601,6.7644,6.7708,6.7741,6.7787,6.7832,6.7912,6.7963,6.8,6.8056,6.8125,6.8181,6.8197,6.8219,6.8219,6.8237,6.8207,6.8205,6.8203,6.8192,6.8223,6.8224,6.8264,6.8265,6.8265]}]]